Regional Weather Roundup
Issued by NWS Albany, NY

Home | Current Version | Previous Version | Text Only | Print | Product List | Glossary On
Versions: 1 2 3 4 5 6 7 8 9 10 11 12 13 14 15 16 17 18 19 20 21 22 23 24 25 26 27 28 29 30 31 32 33 34 35 36 37 38 39 40 41 42 43 44 45 46 47 48 49 50
000
ASUS41 KALY 260410
RWRALY

NEW YORK STATE HOURLY WEATHER ROUNDUP
NATIONAL WEATHER SERVICE ALBANY NY
1200 AM EDT THU MAY 26 2016

NOTE: "FAIR" INDICATES FEW OR NO CLOUDS BELOW 12,000 FEET WITH NO
SIGNIFICANT WEATHER AND/OR NO OBSTRUCTIONS TO VISIBILITY.

NYZ032-033-038>043-046>054-057>066-NYZ062>081-082-084-260500-
EAST


CITY           SKY/WX    TMP DP  RH WIND       PRES   REMARKS
ALBANY         PTCLDY    64  54  69 S6        30.04S
GLENS FALLS    CLEAR     60  53  77 E3        30.03S
POUGHKEEPSIE   PTCLDY    65  58  78 CALM      30.04S
NEWBURGH       PTCLDY    72  55  56 CALM      30.06F
MONTGOMERY     PTCLDY    63  58  83 CALM      30.05S
WHITE PLAINS   CLEAR     67  51  56 CALM      30.06S
ISLIP          PTCLDY    64  55  72 SW5       30.05F
NEW YORK CITY  PTCLDY    82  53  36 W10       30.04S
CENTRAL PARK   CLEAR     77  46  33 W5        30.09R
$$

NYZ005>009-017-018-044>046-055-056-260500-
CENTRAL


CITY           SKY/WX    TMP DP  RH WIND       PRES   REMARKS
FULTON         CLOUDY    66  55  67 CALM      30.06R
SYRACUSE       PTCLDY    65  55  70 SE5       30.04F
ROME           CLEAR     60  55  83 CALM      30.07S
ELMIRA         CLOUDY    59  53  80 W5        30.09S
BINGHAMTON     CLOUDY    68  50  52 CALM      30.11S
MONTICELLO     CLEAR     61  55  82 N5        30.13R
$$

NYZ026>034-041>043-087-260500-
NORTH


CITY           SKY/WX    TMP DP  RH WIND       PRES   REMARKS
WATERTOWN      CLEAR     56  52  86 CALM      30.05S
FORT DRUM      NOT AVBL
MASSENA        MOCLDY    63  52  67 NE5       30.08S
SARANAC LAKE   CLEAR     52  48  86 CALM      30.09R
PLATTSBURGH    PTCLDY    66  53  63 N10       30.05R
$$

NYZ001>004-010>016-019>021-085-260500-
WEST


CITY           SKY/WX    TMP DP  RH WIND       PRES   REMARKS
NIAGARA FALLS  PTCLDY    65  53  65 CALM      30.06S
BUFFALO        CLOUDY    66  53  63 S6        30.07S
DUNKIRK        MOCLDY    61  52  72 S3        30.07F
JAMESTOWN      CLOUDY    64  52  63 S3        30.13S
WELLSVILLE     CLOUDY    67  50  54 W5        30.16S
ROCHESTER      CLOUDY    69  51  52 W7        30.06S
PENN YAN       MOCLDY    66  53  63 CALM      30.09S
$$

             KEY
       WCI = WIND CHILL INDEX
       VSB = VISIBILITY
       HX  = HEAT INDEX
$$



USA.gov is the U.S. government's official web portal to all federal, state and local government web resources and services.